{"data":{"norad_id":52491,"intl_designator":"2022-049AS","name":"STARLINK-3908","alt_names":[],"object_type":"PAYLOAD","status":"ACTIVE","operator":null,"country":"US","launch_date":"2022-05-06","launch_site_code":"AFETR","launch_vehicle":null,"mission":null,"orbit_class":"UNKNOWN","rcs_meters":null,"size_class":null,"mass_kg":null,"dimensions":null,"purposes":["comms"],"wikipedia_slug":null,"has_3d_model":false,"image_url":null,"decayed_at":null,"tle_current":{"epoch":"2026-05-25T01:51:38.977344Z","epoch_age_seconds":68087,"freshness":"FRESH","line1":"1 52491U 22049AS  26145.07753446 -.00000125  00000+0  10258-4 0  9990","line2":"2 52491  53.2126  66.2019 0001449  81.2647 278.8509 15.08831826223921","mean_motion":15.08831826,"eccentricity":0.0001449,"inclination_deg":53.2126,"raan_deg":66.2019,"arg_perigee_deg":81.2647,"mean_anomaly_deg":278.8509,"bstar":1.0258e-5,"rev_number":22392,"period_min":95.43807170462,"perigee_km":538.76596923619,"apogee_km":540.77077821349,"semimajor_km":6917.9053737248,"source":"CELESTRAK","updated_at":"2026-05-25T13:38:17.158009Z"}}}